Weather in Dolmatovskiy

Russia / Ivanovo Oblast     57°29′50″N   42°19′57″E
temp.,
°C
wind,
m/s
gust,
m/s
humid.,
%
clouds,
%
prec.,
mm/h
press.,
hPa
HPBL,
m
27 february, sat
sat2700:00−8ne3597100 1.9 995140
03:00−11ne4895100 2.6 997294
06:00−13nne51093100 0.5 1000500
09:00−13nne5990100 0.7 1004552
12:00−12n4789100 0.0 1007615
15:00−11n4789100 0.1 1009612
18:00−14n2395100 0.1 101060
21:00−16n239798 0.1 101326
28 february, sun
sun2800:00−18nnw229763 0.0 101320
03:00−19nnw229743 0.0 101520
06:00−18nnw129775 0.0 101522
09:00−15n129476 0.1 1015184
12:00−10nnw128995 0.0 1015404
15:00−8nnw238797 0.1 1016526
18:00−9nnw1295100 0.1 101624
21:00−12nne1197100 0.1 101921
1 march, mon
mon100:00−13wnw009798 0.0 102020
03:00−14wsw119889 0.1 102120
06:00−14wsw129890 0.0 102220
09:00−11sw129690 0.1 102283
12:00−5ssw349489 0.0 1021332
15:00−3sw479192 0.1 1019632
18:00−3sw51093100 0.1 1016653
21:00−2sw51197100 0.9 1012560
2 march, tue
tue200:000wsw51197100 2.1 1008582
03:00+1w51198100 2.5 1005639
06:000w51098100 0.9 1002629
09:000nw51098100 1.6 1001860
12:00+1nw5109788 0.2 1002878
15:00+1nw5119494 0.5 1002842
18:00−2nw3108985 0.0 1004275
21:00−3nw4119479 0.1 1006369
3 march, wed
wed300:00−4nw399492 0.0 1006331
03:00−4nw399694 0.3 1008395
06:00−6nnw5119199 0.1 1010579
09:00−6nnw5119099 0.1 1012572
12:00−4nw478815 0.0 1013481
15:00−3nw589039 0.1 1013816
18:00−4nw41093100 0.3 1013536
21:00−8wnw379379 0.3 1015143